EW0322 Weather Reports


Display with metric or nautical units.
time (UTC)temp
F
wind
direction
speed
MPH
gust
MPH
rain 1hr
in
rain 24hr
in
rain mn
in
humidity
%
barometer
mb
20260906183040 92 78 0.0 9.0 0.00 0.00 0.00 33 1003.3
20260906181518 93 70 1.0 9.0 0.00 0.00 0.00 33 1003.7
20260906180019 92 70 0.0 5.0 0.00 0.00 0.00 34 1004.1
20260906174510 91 69 2.0 8.0 0.00 0.00 0.00 34 1004.4
20260906173009 90 70 1.0 9.0 0.00 0.00 0.00 36 1004.6
20260906171512 89 70 1.0 12.0 0.00 0.00 0.00 37 1004.7
20260906170059 89 63 2.0 8.0 0.00 0.00 0.00 37 1004.8
20260906164553 88 63 3.0 9.0 0.00 0.00 0.00 38 1004.9
20260906163051 88 56 1.0 7.0 0.00 0.00 0.00 38 1004.8
20260906161552 86 57 4.0 11.0 0.00 0.00 0.00 40 1004.8
20260906160042 87 54 2.0 7.0 0.00 0.00 0.00 40 1004.7
20260906154536 85 54 3.0 7.0 0.00 0.00 0.00 41 1004.7
20260906153034 85 53 1.0 6.0 0.00 0.00 0.00 42 1004.6
20260906151533 84 54 2.0 5.0 0.00 0.00 0.00 42 1004.6
20260906150026 84 54 2.0 5.0 0.00 0.00 0.00 42 1004.6
20260906144519 84 54 0.0 3.0 0.00 0.00 0.00 43 1004.7
20260906143015 84 53 0.0 2.0 0.00 0.00 0.00 43 1004.5
20260906141511 83 53 0.0 0.0 0.00 0.00 0.00 44 1004.5
20260906140010 82 54 0.0 0.0 0.00 0.00 0.00 46 1004.6
20260906134501 80 54 0.0 0.0 0.00 0.00 0.00 49 1004.6
20260906133103 79 53 0.0 0.0 0.00 0.00 0.00 51 1004.5
20260906131554 78 54 0.0 0.0 0.00 0.00 0.00 51 1004.3
20260906130059 78 53 0.0 0.0 0.00 0.00 0.00 51 1004.4
20260906124549 78 54 0.0 0.0 0.00 0.00 0.00 51 1004.0
20260906123046 78 53 0.0 0.0 0.00 0.00 0.00 50 1003.9
20260906121555 78 54 0.0 1.0 0.00 0.00 0.00 50 1003.6
20260906120045 78 53 0.0 1.0 0.00 0.00 0.00 50 1003.7
20260906114555 79 53 0.0 0.0 0.00 0.00 0.00 50 1003.6
20260906113053 79 54 0.0 2.0 0.00 0.00 0.00 50 1003.6
20260906111543 79 54 0.0 3.0 0.00 0.00 0.00 49 1003.6
20260906110041 79 54 0.0 4.0 0.00 0.00 0.00 48 1003.6
20260906104538 80 54 0.0 0.0 0.00 0.00 0.00 48 1003.6
20260906103037 80 54 0.0 2.0 0.00 0.00 0.00 47 1003.6
20260906101536 81 54 0.0 3.0 0.00 0.00 0.00 47 1003.6
20260906100033 81 54 0.0 5.0 0.00 0.00 0.00 46 1003.5
20260906094533 82 54 0.0 4.0 0.00 0.00 0.00 45 1003.6
20260906093030 82 54 0.0 3.0 0.00 0.00 0.00 44 1003.5
20260906091533 82 54 0.0 4.0 0.00 0.00 0.00 44 1003.6
20260906090029 83 54 3.0 7.0 0.00 0.00 0.00 43 1003.4
20260906084525 83 54 2.0 7.0 0.00 0.00 0.00 43 1003.6
20260906083022 83 54 0.0 4.0 0.00 0.00 0.00 43 1003.7
20260906081532 83 54 0.0 5.0 0.00 0.00 0.00 43 1003.7
20260906080019 84 54 0.0 6.0 0.00 0.00 0.00 43 1004.0
20260906074521 84 54 2.0 6.0 0.00 0.00 0.00 42 1004.1
20260906073019 84 53 1.0 4.0 0.00 0.00 0.00 42 1004.0
20260906071516 84 54 1.0 10.0 0.00 0.00 0.00 42 1004.0
20260906070014 84 53 0.0 0.0 0.00 0.00 0.00 41 1003.9
20260906064510 85 54 0.0 3.0 0.00 0.00 0.00 40 1003.9
20260906063009 85 54 0.0 4.0 0.00 0.00 0.00 40 1004.0
20260906061505 85 54 0.0 3.0 0.00 0.00 0.00 40 1003.9
20260906060005 85 54 0.0 5.0 0.00 0.00 0.00 40 1004.1
20260906054605 85 54 1.0 6.0 0.00 0.00 0.00 40 1004.1
20260906053101 85 54 2.0 5.0 0.00 0.00 0.00 40 1004.1
20260906051604 85 53 2.0 7.0 0.00 0.00 0.00 40 1004.0
20260906050059 85 54 1.0 5.0 0.00 0.00 0.00 41 1003.9
20260906044559 86 53 2.0 6.0 0.00 0.00 0.00 40 1003.9
20260906043059 86 53 3.0 7.0 0.00 0.00 0.00 39 1004.0
20260906041558 86 54 3.0 6.0 0.00 0.00 0.00 38 1003.9
20260906040058 86 53 1.0 6.0 0.00 0.00 0.00 37 1003.7
20260906034557 87 53 0.0 3.0 0.00 0.00 0.00 37 1003.6
20260906033056 86 53 0.0 2.0 0.00 0.00 0.00 37 1003.5
20260906031602 86 53 0.0 1.0 0.00 0.00 0.00 37 1003.3
20260906030055 86 53 1.0 6.0 0.00 0.00 0.00 37 1003.0
20260906024555 86 53 0.0 6.0 0.00 0.00 0.00 37 1002.8
20260906023054 87 54 2.0 10.0 0.00 0.00 0.00 37 1002.8
20260906021556 87 54 2.0 9.0 0.00 0.00 0.00 37 1002.7
20260906014553 88 53 0.0 12.0 0.00 0.00 0.00 35 1002.4
20260906013053 89 47 4.0 12.0 0.00 0.00 0.00 33 1002.5
20260906011552 90 52 4.0 14.0 0.00 0.00 0.00 32 1002.2
20260906010051 94 246 2.0 7.0 0.00 0.00 0.00 28 1002.0
20260906004550 94 246 1.0 4.0 0.00 0.00 0.00 28 1001.8
20260906003050 94 246 1.0 4.0 0.00 0.00 0.00 28 1001.8
20260906001549 95 242 0.0 5.0 0.00 0.00 0.00 27 1001.9
20260906000049 94 241 0.0 5.0 0.00 0.00 0.00 28 1001.7
20260905234547 94 242 0.0 5.0 0.00 0.00 0.00 28 1001.8
20260905233049 95 244 4.0 10.0 0.00 0.00 0.00 27 1001.8
20260905231547 96 244 1.0 8.0 0.00 0.00 0.00 26 1001.7
20260905230051 95 244 2.0 7.0 0.00 0.00 0.00 27 1001.7
20260905224600 97 244 0.0 5.0 0.00 0.00 0.00 26 1002.0
20260905223040 97 244 0.0 3.0 0.00 0.00 0.00 26 1002.0
20260905221552 96 244 1.0 8.0 0.00 0.00 0.00 27 1002.3
20260905220040 94 242 1.0 7.0 0.00 0.00 0.00 28 1002.5
20260905214535 94 236 3.0 10.0 0.00 0.00 0.00 29 1002.6
20260905213030 95 215 3.0 8.0 0.00 0.00 0.00 29 1002.8
20260905211528 94 224 2.0 8.0 0.00 0.00 0.00 30 1003.0
20260905210027 94 232 4.0 10.0 0.00 0.00 0.00 30 1003.3
20260905204524 95 233 2.0 6.0 0.00 0.00 0.00 29 1003.5
20260905203023 96 237 1.0 7.0 0.00 0.00 0.00 30 1003.8
20260905201518 94 230 0.0 5.0 0.00 0.00 0.00 31 1004.0
20260905200015 93 238 2.0 8.0 0.00 0.00 0.00 31 1004.4
20260905194511 93 225 0.0 9.0 0.00 0.00 0.00 32 1004.6
20260905193009 92 230 0.0 5.0 0.00 0.00 0.00 32 1004.9
20260905191505 92 223 2.0 6.0 0.00 0.00 0.00 32 1005.2
20260905190002 91 233 0.0 6.0 0.00 0.00 0.00 34 1005.5
20260905184602 90 225 2.0 8.0 0.00 0.00 0.00 35 1005.7